Location: Breckenridge
(39.4820°N, 106.0380°W)
Time: 14:14:00
(UTC-06:00)

ISS - Pass Details

Date: 24 March 2019
Orbit: 408 x 410 km, 51.6° (Epoch: 22 April)

Event Time Altitude Azimuth Distance (km) Brightness Sun altitude
Rises 21:47:16 0° 289° (WNW) 2,326 1.2 -28.0°
Reaches altitude 10° 21:50:23 10° 322° (NW) 1,466 -0.2 -28.5°
Enters shadow 21:51:20 12° 339° (NNW) 1,355 -0.6 -28.7°
